Location: Unspecified
(0.0000°N, 0.0000°E)
Time: 09:17:07
(UTC+00:00)

A-11 Canister half - All Passes

Search period start: 23 April 2014 00:00
Search period end: 03 May 2014 00:00
Orbit: 1527 x 1683 km, 47.3° (Epoch: 21 April)

Date Brightness Start Highest point End Pass type
(mag) Time Alt. Az. Time Alt. Az. Time Alt. Az.
23 Apr - 07:43:00 10° SSW 07:51:20 35° SE 07:59:49 10° ENE daylight
23 Apr - 09:47:06 10° WSW 09:56:10 50° NW 10:05:33 10° NNE daylight
23 Apr - 18:33:17 10° NNE 18:38:08 14° NE 18:42:55 10° ENE visible
23 Apr - 20:33:42 10° NW 20:43:41 76° NE 20:53:21 10° SE visible
23 Apr - 22:41:40 10° W 22:48:41 22° SW 22:55:37 10° S visible
24 Apr - 07:21:41 10° S 07:29:48 33° SE 07:38:04 10° ENE daylight
24 Apr - 09:25:30 10° SW 09:34:39 53° NW 09:44:06 10° NNE daylight
24 Apr - 18:12:21 10° NNE 18:16:32 13° NE 18:20:39 10° ENE visible
24 Apr - 20:12:12 10° NNW 20:22:09 72° NE 20:31:49 10° SE visible
24 Apr - 22:19:45 10° W 22:27:08 24° SW 22:34:25 10° S visible
25 Apr - 07:00:23 10° S 07:08:17 30° SE 07:16:18 10° ENE daylight
25 Apr - 09:03:55 10° SW 09:13:07 57° NW 09:22:39 10° NNE daylight
25 Apr - 17:51:35 10° NNE 17:54:54 12° NE 17:58:12 10° ENE daylight
25 Apr - 19:50:41 10° NNW 20:00:38 67° NE 20:10:16 10° SE visible
25 Apr - 21:57:53 10° W 22:05:35 26° SW 22:13:10 10° S visible
26 Apr - 06:39:06 10° S 06:46:45 28° SE 06:54:30 10° ENE daylight
26 Apr - 08:42:20 10° SW 08:51:36 61° NW 09:01:11 10° NNE daylight
26 Apr - 17:31:11 10° NNE 17:33:17 11° NE 17:35:22 10° NE daylight
26 Apr - 19:29:12 10° NNW 19:39:06 63° NE 19:48:42 10° SE visible
26 Apr - 21:36:02 10° WNW 21:44:02 28° SW 21:51:54 10° S visible
27 Apr - 06:17:50 10° S 06:25:13 26° SE 06:32:41 10° E daylight
27 Apr - 08:20:47 10° SW 08:30:05 65° NW 08:39:42 10° NNE daylight
27 Apr - 10:33:35 10° WNW 10:35:47 11° NW 10:38:00 10° NNW daylight
27 Apr - 19:07:43 10° NNW 19:17:34 59° NE 19:27:07 10° SE visible
27 Apr - 21:14:13 10° WNW 21:22:30 30° SW 21:30:37 10° S visible
28 Apr - 05:56:36 10° S 06:03:41 24° SE 06:10:50 10° E daylight
28 Apr - 07:59:14 10° SW 08:08:35 70° NW 08:18:13 10° NNE daylight
28 Apr - 10:10:53 10° WNW 10:14:10 12° NW 10:17:30 10° NNW daylight
28 Apr - 18:46:15 10° NNW 18:56:01 55° NE 19:05:32 10° SE visible
28 Apr - 20:52:26 10° WNW 21:00:57 33° SW 21:09:19 10° S visible
29 Apr - 05:35:23 10° S 05:42:09 22° SE 05:48:57 10° E visible
29 Apr - 07:37:43 10° SW 07:47:04 74° NW 07:56:43 10° NNE daylight
29 Apr - 09:48:30 10° WNW 09:52:34 13° NW 09:56:42 10° NNW daylight
29 Apr - 18:24:48 10° NNW 18:34:29 52° NE 18:43:55 10° ESE visible
29 Apr - 20:30:40 10° WNW 20:39:25 35° SW 20:48:00 10° SSE visible
30 Apr - 05:14:12 10° S 05:20:36 20° SE 05:27:02 10° E visible
30 Apr - 07:16:11 10° SW 07:25:34 79° NW 07:35:13 10° NE daylight
30 Apr - 09:26:17 10° WNW 09:30:58 15° NW 09:35:45 10° NNW daylight
30 Apr - 18:03:21 10° NNW 18:12:56 48° NE 18:22:18 10° ESE visible
30 Apr - 20:08:55 10° WNW 20:17:52 38° SW 20:26:39 10° SSE visible
01 May - 04:53:03 10° S 04:59:03 19° SE 05:05:04 10° E visible
01 May - 06:54:41 10° SW 07:04:04 84° NW 07:13:42 10° NE daylight
01 May - 09:04:11 10° W 09:09:23 16° NW 09:14:42 10° N daylight
01 May - 17:41:55 10° NNW 17:51:24 45° NE 18:00:39 10° ESE daylight
01 May - 19:47:11 10° WNW 19:56:20 41° SW 20:05:18 10° SSE visible
02 May - 04:31:57 10° S 04:37:30 17° SE 04:43:03 10° E visible
02 May - 06:33:11 10° SW 06:42:34 89° NW 06:52:10 10° NE daylight
02 May - 08:42:09 10° W 08:47:48 17° NW 08:53:35 10° N daylight
02 May - 17:20:29 10° NNW 17:29:51 42° NE 17:38:59 10° ESE daylight
02 May - 19:25:28 10° WNW 19:34:48 44° SW 19:43:56 10° SSE visible
